Weather in Glubokoye

Russia / Kemerovo Oblast     55°31′32″N   85°42′46″E
temp.,
°C
wind,
m/s
gust,
m/s
humid.,
%
clouds,
%
prec.,
mm/h
press.,
hPa
HPBL,
m
18 april, sun
sun1801:00−7s2389100 0.0 102253
04:00−4s3989100 0.0 1019236
07:00−2ssw41085100 0.0 1018411
10:000sw6118558 0.0 1016627
13:00+3sw61187100 0.0 1015899
16:00+4sw51077100 0.0 1013946
19:00+3ssw71281100 0.1 1010610
22:00+1s71598100 1.7 1006641
19 april, mon
mon1901:00+1ssw61298100 4.4 1000502
04:00+2sw81597100 2.9 997950
07:00−7wnw111787100 3.5 10041105
10:00−8nw101377100 0.2 10131104
13:00−6wnw8959100 0.3 10181478
16:00−5wnw7955100 0.0 10211767
19:00−6nw6861100 0.1 10221484
22:00−7nw586896 0.1 10231246
20 april, tue
tue2001:00−7wnw576682 0.1 10231154
04:00−7wnw6775100 0.1 1024978
07:00−8wnw577445 0.1 1025810
10:00−6wnw566055 0.0 1025989
13:00−4wnw56515 0.0 10251223
16:00−2wnw564519 0.0 10241501
19:00−2w454446 0.0 10241648
22:00−4wsw22595 0.0 102451
21 april, wed
wed2101:00−3sw3661100 0.0 1023291
04:00−4ssw3662100 0.0 1023263
07:00−3s4759100 0.0 1023451
10:00−2ssw4653100 0.0 10231323
13:000ssw3445100 0.1 10231629
16:00+2sse1241100 0.0 10231621
19:00+1ene235065 0.0 1024215
22:00−2ene37775 0.0 1027175
22 april, thu
thu2201:00−3ne37785 0.0 1028215
04:00−4nne38715 0.0 1030278
07:00−3nne49724 0.0 1032362
10:000ne685283 0.0 10341436
13:00+2nne6645100 0.1 10351958
16:00+2nne5645100 0.1 10361755
19:00+2nne475446 0.1 1038814
22:00−2nne310745 0.0 1041303